Location: The Saddle
(36.8333°N, 80.3417°W)
Time: 00:46:44
(UTC-05:00)

A-11 Canister half - All Passes

Search period start: 10 December 2023 00:00
Search period end: 20 December 2023 00:00
Orbit: 1525 x 1683 km, 47.3° (Epoch: 09 December)

Date Brightness Start Highest point End Pass type
(mag) Time Alt. Az. Time Alt. Az. Time Alt. Az.
10 Dec - 01:56:43 10° WNW 02:05:13 34° SW 02:13:29 10° S night (unlit)
10 Dec - 15:09:11 10° S 15:16:13 22° SE 15:23:19 10° E daylight
10 Dec - 17:10:07 10° SW 17:20:09 75° SE 17:30:18 10° ENE daylight
10 Dec - 19:15:57 10° W 19:25:52 55° NNW 19:35:46 10° ENE visible
10 Dec - 21:23:02 10° WNW 21:32:48 48° N 21:42:20 10° E visible
10 Dec - 23:28:55 10° WNW 23:39:04 81° NNE 23:48:52 10° ESE visible
11 Dec - 01:34:50 10° WNW 01:43:32 36° SW 01:51:59 10° SSE night (unlit)
11 Dec - 14:47:51 10° SSE 14:54:32 20° SE 15:01:17 10° E daylight
11 Dec - 16:48:24 10° SW 16:58:24 72° SE 17:08:30 10° ENE daylight
11 Dec - 18:54:05 10° W 19:04:02 56° NNW 19:13:58 10° ENE visible
11 Dec - 21:01:12 10° WNW 21:10:57 47° N 21:20:30 10° E visible
11 Dec - 23:07:07 10° WNW 23:17:18 79° NNE 23:27:07 10° ESE visible
12 Dec - 01:12:58 10° WNW 01:21:50 38° SW 01:30:28 10° SSE night (unlit)
12 Dec - 14:26:34 10° SSE 14:32:52 19° ESE 14:39:12 10° E daylight
12 Dec - 16:26:42 10° SW 16:36:39 69° SE 16:46:43 10° ENE daylight
12 Dec - 18:32:14 10° W 18:42:12 57° NNW 18:52:10 10° ENE visible
12 Dec - 20:39:21 10° WNW 20:49:05 47° N 20:58:39 10° ENE visible
12 Dec - 22:45:20 10° WNW 22:55:30 76° NNE 23:05:21 10° ESE visible
13 Dec - 00:51:06 10° WNW 01:00:08 41° SW 01:08:55 10° SSE night (unlit)
13 Dec - 14:05:20 10° SSE 14:11:11 17° ESE 14:17:05 10° E daylight
13 Dec - 16:05:01 10° SW 16:14:54 65° SE 16:24:55 10° ENE daylight
13 Dec - 18:10:23 10° W 18:20:22 59° NNW 18:30:23 10° ENE visible
13 Dec - 20:17:30 10° WNW 20:27:14 47° N 20:36:48 10° ENE visible
13 Dec - 22:23:33 10° WNW 22:33:42 74° NNE 22:43:35 10° ESE visible
14 Dec - 00:29:15 10° WNW 00:38:27 43° SW 00:47:22 10° SSE night (unlit)
14 Dec - 13:44:10 10° SSE 13:49:31 16° ESE 13:54:54 10° E daylight
14 Dec - 15:43:21 10° SW 15:53:09 62° SE 16:03:08 10° ENE daylight
14 Dec - 17:48:33 10° W 17:58:32 60° NNW 18:08:35 10° ENE visible
14 Dec - 19:55:39 10° WNW 20:05:22 47° N 20:14:58 10° ENE visible
14 Dec - 22:01:45 10° WNW 22:11:55 71° NNE 22:21:47 10° ESE visible
15 Dec - 00:07:24 10° WNW 00:16:44 45° SW 00:25:48 10° SSE night (unlit)
15 Dec - 13:23:05 10° SSE 13:27:51 14° ESE 13:32:38 10° E daylight
15 Dec - 15:21:40 10° SSW 15:31:24 59° SE 15:41:19 10° ENE daylight
15 Dec - 17:26:43 10° WSW 17:36:42 62° NNW 17:46:47 10° ENE visible
15 Dec - 19:33:47 10° WNW 19:43:30 46° N 19:53:07 10° ENE visible
15 Dec - 21:39:57 10° WNW 21:50:07 69° NNE 22:00:00 10° ESE visible
15 Dec - 23:45:34 10° WNW 23:55:02 48° SW 00:04:13 10° SSE night (unlit)
16 Dec - 13:02:08 10° SE 13:06:11 13° ESE 13:10:16 10° E daylight
16 Dec - 15:00:02 10° SSW 15:09:40 57° SE 15:19:30 10° ENE daylight
16 Dec - 17:04:53 10° WSW 17:14:53 64° NNW 17:25:00 10° ENE daylight
16 Dec - 19:11:57 10° WNW 19:21:38 46° N 19:31:16 10° ENE visible
16 Dec - 21:18:10 10° WNW 21:28:18 67° NNE 21:38:11 10° ESE visible
16 Dec - 23:23:43 10° WNW 23:33:19 51° SW 23:42:37 10° SSE visible
17 Dec - 01:35:20 10° WSW 01:36:37 10° WSW 01:37:54 10° SW night (unlit)
17 Dec - 12:41:23 10° SE 12:44:32 12° ESE 12:47:41 10° E daylight
17 Dec - 14:38:24 10° SSW 14:47:56 54° SE 14:57:41 10° ENE daylight
17 Dec - 16:43:03 10° WSW 16:53:04 65° NNW 17:03:12 10° ENE daylight
17 Dec - 18:50:06 10° WNW 18:59:47 46° N 19:09:25 10° ENE visible
17 Dec - 20:56:22 10° WNW 21:06:29 65° NNE 21:16:23 10° ESE visible
17 Dec - 23:01:54 10° WNW 23:11:35 54° SW 23:21:00 10° SSE visible
18 Dec - 01:12:02 10° WSW 01:14:58 12° WSW 01:17:53 10° SW night (unlit)
18 Dec - 12:21:09 10° SE 12:22:52 11° ESE 12:24:37 10° ESE daylight
18 Dec - 14:16:46 10° SSW 14:26:13 51° SE 14:35:52 10° ENE daylight
18 Dec - 16:21:15 10° WSW 16:31:15 67° NNW 16:41:24 10° ENE daylight
18 Dec - 18:28:13 10° WNW 18:37:55 46° N 18:47:35 10° ENE visible
18 Dec - 20:34:33 10° WNW 20:44:40 63° NNE 20:54:35 10° ESE visible
18 Dec - 22:40:05 10° WNW 22:49:52 56° SW 22:59:22 10° SSE visible
19 Dec - 00:49:24 10° W 00:53:19 13° WSW 00:57:11 10° SW night (unlit)
19 Dec - 13:55:10 10° SSW 14:04:29 48° SE 14:14:01 10° ENE daylight
19 Dec - 15:59:26 10° WSW 16:09:26 69° NNW 16:19:37 10° ENE daylight
19 Dec - 18:06:22 10° WNW 18:16:03 47° N 18:25:44 10° ENE visible
19 Dec - 20:12:45 10° WNW 20:22:51 62° NNE 20:32:45 10° ESE visible
19 Dec - 22:18:16 10° WNW 22:28:08 59° SW 22:37:44 10° SSE visible
